BCS168 EDDK-EDDP

Flight info

Callsign BCS168
Flight time 0h 57m
Altitude 23000
Route PODIP9B PODIP Y867 PELUN DCT ERSET N858 MAXOT T212 LASTO T956 GOXLI GOXLI1R
Aircraft B738/M-SDE2E3FGHIRWXY/LB1

Departure

Time 2026-04-21 13:44
Airport Cologne Bonn Airport (EDDK)

Arrival

Time 2026-04-21 14:42
Airport Leipzig/Halle Airport (EDDP)
Time Latitude Longitude Altitude Speed Heading
2026-04-21 13:07 50.87374 7.13033 253 ft 0 kts 226°
2026-04-21 13:33 50.87383 7.13048 242 ft 4 kts 224°
2026-04-21 13:33 50.87403 7.13077 243 ft 4 kts 226°
2026-04-21 13:33 50.87421 7.13108 244 ft 4 kts 222°
2026-04-21 13:33 50.87443 7.13132 245 ft 4 kts 198°
2026-04-21 13:34 50.87466 7.13134 245 ft 4 kts 147°
2026-04-21 13:34 50.87471 7.13129 245 ft 1 kts 138°
2026-04-21 13:36 50.87454 7.13153 246 ft 7 kts 137°
2026-04-21 13:36 50.87395 7.13239 246 ft 15 kts 137°
2026-04-21 13:36 50.87356 7.13386 249 ft 15 kts 102°
2026-04-21 13:37 50.87308 7.13521 254 ft 14 kts 136°
2026-04-21 13:37 50.87238 7.13623 255 ft 14 kts 136°
2026-04-21 13:37 50.87166 7.13729 260 ft 15 kts 137°
2026-04-21 13:37 50.87078 7.13856 263 ft 20 kts 139°
2026-04-21 13:38 50.86973 7.14008 267 ft 20 kts 136°
2026-04-21 13:38 50.86869 7.14155 267 ft 20 kts 137°
2026-04-21 13:38 50.86771 7.14299 267 ft 19 kts 138°
2026-04-21 13:38 50.86672 7.14426 267 ft 18 kts 164°
2026-04-21 13:39 50.86558 7.14393 265 ft 18 kts 146°
2026-04-21 13:39 50.86466 7.14522 268 ft 17 kts 138°
2026-04-21 13:39 50.86378 7.14649 274 ft 17 kts 137°
2026-04-21 13:39 50.86295 7.14774 275 ft 16 kts 135°
2026-04-21 13:40 50.86212 7.14892 276 ft 16 kts 137°
2026-04-21 13:40 50.86126 7.15018 278 ft 18 kts 137°
2026-04-21 13:40 50.86050 7.15163 279 ft 18 kts 107°
2026-04-21 13:40 50.86100 7.15339 279 ft 20 kts 27°
2026-04-21 13:41 50.86213 7.15336 281 ft 0 kts 348°
2026-04-21 13:43 50.86230 7.15331 284 ft 7 kts 348°
2026-04-21 13:43 50.86312 7.15303 279 ft 17 kts 348°
2026-04-21 13:43 50.86443 7.15223 278 ft 30 kts 321°
2026-04-21 13:43 50.86778 7.14747 271 ft 98 kts 317°
2026-04-21 13:44 50.87430 7.13808 259 ft 152 kts 317°
2026-04-21 13:44 50.87963 7.12994 450 ft 164 kts 319°
2026-04-21 13:44 50.89125 7.11353 1220 ft 178 kts 330°
2026-04-21 13:44 50.89869 7.10764 1623 ft 182 kts 343°
2026-04-21 13:45 50.91089 7.10507 2383 ft 174 kts 10°
2026-04-21 13:45 50.92218 7.11147 3045 ft 173 kts 35°
2026-04-21 13:45 50.93059 7.12530 3566 ft 180 kts 59°
2026-04-21 13:45 50.93640 7.14310 4148 ft 181 kts 63°
2026-04-21 13:46 50.94171 7.16124 4812 ft 178 kts 66°
2026-04-21 13:46 50.94704 7.17880 5461 ft 185 kts 63°
2026-04-21 13:46 50.95332 7.19812 5659 ft 206 kts 63°
2026-04-21 13:46 50.96020 7.21939 5882 ft 225 kts 63°
2026-04-21 13:47 50.96736 7.24177 6411 ft 228 kts 64°
2026-04-21 13:47 50.97451 7.26418 6910 ft 232 kts 64°
2026-04-21 13:47 50.98175 7.28705 7465 ft 232 kts 64°
2026-04-21 13:47 50.98909 7.31028 7972 ft 236 kts 64°
2026-04-21 13:48 50.99660 7.33410 8234 ft 253 kts 64°
2026-04-21 13:48 51.00471 7.35980 8752 ft 264 kts 64°
2026-04-21 13:48 51.01296 7.38597 9566 ft 265 kts 64°
2026-04-21 13:48 51.01871 7.41373 10298 ft 269 kts 84°
2026-04-21 13:49 51.01707 7.44402 10520 ft 292 kts 104°
2026-04-21 13:49 51.01096 7.47652 10711 ft 314 kts 106°
2026-04-21 13:49 51.00427 7.50991 11131 ft 325 kts 106°
2026-04-21 13:49 50.99729 7.54453 11822 ft 328 kts 106°
2026-04-21 13:50 50.99034 7.57925 12565 ft 331 kts 106°
2026-04-21 13:50 50.98347 7.61388 13277 ft 334 kts 105°
2026-04-21 13:50 50.97646 7.64936 14028 ft 337 kts 105°
2026-04-21 13:50 50.96944 7.68508 14701 ft 341 kts 105°
2026-04-21 13:51 50.96228 7.72144 15399 ft 345 kts 105°
2026-04-21 13:51 50.95517 7.75747 16092 ft 348 kts 105°
2026-04-21 13:51 50.94949 7.79495 16731 ft 351 kts 92°
2026-04-21 13:51 50.95145 7.83364 17430 ft 352 kts 76°
2026-04-21 13:52 50.96066 7.86978 18135 ft 355 kts 62°
2026-04-21 13:52 50.97288 7.90334 18907 ft 354 kts 60°
2026-04-21 13:52 50.98572 7.93719 19684 ft 353 kts 59°
2026-04-21 13:52 50.99836 7.97049 20449 ft 352 kts 59°
2026-04-21 13:53 51.01072 8.00340 21180 ft 351 kts 59°
2026-04-21 13:53 51.02310 8.03671 21933 ft 349 kts 60°
2026-04-21 13:53 51.03540 8.07008 22665 ft 349 kts 60°
2026-04-21 13:53 51.04764 8.10344 22988 ft 350 kts 60°
2026-04-21 13:54 51.05987 8.13689 22998 ft 347 kts 60°
2026-04-21 13:54 51.07204 8.17018 23007 ft 347 kts 60°
2026-04-21 13:54 51.08417 8.20346 23012 ft 349 kts 60°
2026-04-21 13:54 51.09637 8.23695 23019 ft 350 kts 60°
2026-04-21 13:55 51.10839 8.27008 23017 ft 351 kts 60°
2026-04-21 13:55 51.12058 8.30373 23016 ft 351 kts 60°
2026-04-21 13:55 51.13274 8.33737 23012 ft 350 kts 60°
2026-04-21 13:55 51.14489 8.37103 23011 ft 349 kts 60°
2026-04-21 13:56 51.15698 8.40455 23006 ft 348 kts 60°
2026-04-21 13:56 51.16902 8.43796 23007 ft 346 kts 60°
2026-04-21 13:56 51.18098 8.47120 23009 ft 345 kts 61°
2026-04-21 13:56 51.19105 8.50516 23007 ft 343 kts 74°
2026-04-21 13:57 51.19494 8.54263 23026 ft 343 kts 87°
2026-04-21 13:57 51.19290 8.58052 23015 ft 345 kts 101°
2026-04-21 13:57 51.18702 8.61760 23020 ft 345 kts 103°
2026-04-21 13:57 51.18066 8.65459 23025 ft 346 kts 103°
2026-04-21 13:58 51.17417 8.69168 23028 ft 347 kts 103°
2026-04-21 13:58 51.16771 8.72878 23023 ft 348 kts 103°
2026-04-21 13:58 51.16129 8.76602 23024 ft 349 kts 103°
2026-04-21 13:58 51.15499 8.80287 23014 ft 349 kts 103°
2026-04-21 13:59 51.14862 8.84024 23017 ft 349 kts 103°
2026-04-21 13:59 51.14226 8.87769 23015 ft 350 kts 103°
2026-04-21 13:59 51.13590 8.91512 23010 ft 350 kts 103°
2026-04-21 13:59 51.12956 8.95244 23023 ft 349 kts 103°
2026-04-21 14:00 51.12322 8.98972 23021 ft 348 kts 103°
2026-04-21 14:00 51.11695 9.02654 23022 ft 348 kts 103°
2026-04-21 14:00 51.11058 9.06385 23024 ft 348 kts 103°
2026-04-21 14:00 51.10421 9.10107 23007 ft 348 kts 103°
2026-04-21 14:01 51.09783 9.13829 23019 ft 348 kts 103°
2026-04-21 14:01 51.09145 9.17546 23022 ft 348 kts 103°
2026-04-21 14:01 51.08504 9.21269 23014 ft 349 kts 103°
2026-04-21 14:01 51.07863 9.24989 23268 ft 353 kts 103°
2026-04-21 14:02 51.07205 9.28795 23248 ft 354 kts 103°
2026-04-21 14:02 51.06555 9.32546 23258 ft 349 kts 103°
2026-04-21 14:02 51.05911 9.36249 23259 ft 346 kts 103°
2026-04-21 14:03 51.04625 9.43632 23262 ft 349 kts 103°
2026-04-21 14:03 51.03973 9.47368 23265 ft 350 kts 103°
2026-04-21 14:03 51.03319 9.51103 23273 ft 351 kts 103°
2026-04-21 14:03 51.02671 9.54798 23258 ft 351 kts 103°
2026-04-21 14:04 51.02013 9.58542 23266 ft 351 kts 103°
2026-04-21 14:04 51.01355 9.62276 23263 ft 351 kts 104°
2026-04-21 14:04 51.00695 9.66014 23254 ft 350 kts 104°
2026-04-21 14:04 51.00044 9.69696 23255 ft 350 kts 104°
2026-04-21 14:05 50.99384 9.73419 23259 ft 349 kts 104°
2026-04-21 14:05 50.98724 9.77134 23247 ft 349 kts 104°
2026-04-21 14:05 50.98065 9.80841 23252 ft 348 kts 104°
2026-04-21 14:05 50.97405 9.84548 23255 ft 348 kts 104°
2026-04-21 14:06 50.96744 9.88244 23257 ft 348 kts 104°
2026-04-21 14:06 50.96101 9.91902 23251 ft 347 kts 101°
2026-04-21 14:06 50.95905 9.95678 23256 ft 339 kts 85°
2026-04-21 14:06 50.96275 9.99302 23242 ft 327 kts 73°
2026-04-21 14:07 50.97133 10.02618 23267 ft 323 kts 65°
2026-04-21 14:07 50.98123 10.05836 23257 ft 324 kts 64°
2026-04-21 14:07 50.99114 10.09008 23170 ft 326 kts 64°
2026-04-21 14:07 51.00112 10.12230 22928 ft 322 kts 64°
2026-04-21 14:08 51.01090 10.15419 22595 ft 321 kts 64°
2026-04-21 14:08 51.02056 10.18596 22281 ft 317 kts 64°
2026-04-21 14:08 51.03008 10.21741 21943 ft 314 kts 65°
2026-04-21 14:08 51.03948 10.24861 21600 ft 311 kts 65°
2026-04-21 14:09 51.04865 10.27909 21279 ft 308 kts 65°
2026-04-21 14:09 51.05758 10.30996 20962 ft 306 kts 66°
2026-04-21 14:09 51.06604 10.34089 20629 ft 304 kts 67°
2026-04-21 14:09 51.07439 10.37157 20296 ft 301 kts 66°
2026-04-21 14:10 51.08297 10.40199 19965 ft 300 kts 66°
2026-04-21 14:10 51.09154 10.43213 19657 ft 298 kts 66°
2026-04-21 14:10 51.10008 10.46217 19339 ft 296 kts 66°
2026-04-21 14:10 51.10843 10.49160 19029 ft 295 kts 66°
2026-04-21 14:11 51.11684 10.52131 18717 ft 293 kts 66°
2026-04-21 14:11 51.12519 10.55089 18363 ft 292 kts 66°
2026-04-21 14:11 51.13351 10.58043 18024 ft 290 kts 66°
2026-04-21 14:11 51.14169 10.60981 17708 ft 288 kts 69°
2026-04-21 14:12 51.14657 10.64025 17406 ft 286 kts 82°
2026-04-21 14:12 51.14710 10.67187 17082 ft 285 kts 91°
2026-04-21 14:12 51.14592 10.70336 16762 ft 284 kts 92°
2026-04-21 14:12 51.14454 10.73463 16453 ft 282 kts 92°
2026-04-21 14:13 51.14316 10.76581 16145 ft 280 kts 92°
2026-04-21 14:13 51.14185 10.79639 15846 ft 279 kts 92°
2026-04-21 14:13 51.14057 10.82716 15546 ft 277 kts 92°
2026-04-21 14:13 51.13931 10.85782 15249 ft 276 kts 92°
2026-04-21 14:14 51.13808 10.88834 14955 ft 275 kts 92°
2026-04-21 14:14 51.13687 10.91832 14671 ft 274 kts 92°
2026-04-21 14:14 51.13565 10.94866 14377 ft 274 kts 92°
2026-04-21 14:14 51.13442 10.97902 14075 ft 274 kts 92°
2026-04-21 14:15 51.13320 11.00924 13742 ft 273 kts 92°
2026-04-21 14:15 51.13197 11.03931 13439 ft 272 kts 92°
2026-04-21 14:15 51.13073 11.06930 13135 ft 271 kts 92°
2026-04-21 14:15 51.12948 11.09921 12842 ft 269 kts 92°
2026-04-21 14:16 51.12830 11.12892 12539 ft 269 kts 91°
2026-04-21 14:16 51.12721 11.15859 12238 ft 268 kts 91°
2026-04-21 14:16 51.12615 11.18777 11945 ft 267 kts 92°
2026-04-21 14:16 51.12507 11.21728 11648 ft 266 kts 91°
2026-04-21 14:17 51.12398 11.24675 11356 ft 265 kts 92°
2026-04-21 14:17 51.12289 11.27612 11067 ft 264 kts 92°
2026-04-21 14:17 51.12180 11.30542 10583 ft 271 kts 92°
2026-04-21 14:17 51.12066 11.33556 10248 ft 271 kts 92°
2026-04-21 14:18 51.11954 11.36482 10119 ft 263 kts 92°
2026-04-21 14:18 51.11844 11.39357 9938 ft 258 kts 92°
2026-04-21 14:18 51.11734 11.42212 9651 ft 256 kts 92°
2026-04-21 14:18 51.11626 11.45005 9377 ft 254 kts 92°
2026-04-21 14:19 51.11516 11.47801 9112 ft 251 kts 92°
2026-04-21 14:19 51.11407 11.50575 8845 ft 250 kts 92°
2026-04-21 14:19 51.11378 11.53336 8560 ft 247 kts 78°
2026-04-21 14:19 51.12024 11.55779 8332 ft 243 kts 54°
2026-04-21 14:20 51.13236 11.57622 8080 ft 242 kts 34°
2026-04-21 14:20 51.14695 11.58983 7820 ft 242 kts 30°
2026-04-21 14:20 51.16167 11.60226 7561 ft 242 kts 29°
2026-04-21 14:20 51.17656 11.61475 7296 ft 241 kts 29°
2026-04-21 14:21 51.19137 11.62732 7044 ft 241 kts 30°
2026-04-21 14:21 51.20622 11.64004 6789 ft 240 kts 29°
2026-04-21 14:21 51.22096 11.65279 6521 ft 240 kts 29°
2026-04-21 14:21 51.23547 11.66541 6259 ft 240 kts 29°
2026-04-21 14:22 51.25011 11.67815 5995 ft 239 kts 30°
2026-04-21 14:22 51.26475 11.69093 5732 ft 239 kts 30°
2026-04-21 14:22 51.28003 11.70093 5499 ft 239 kts 10°
2026-04-21 14:22 51.29645 11.70143 5273 ft 238 kts
2026-04-21 14:23 51.31155 11.71068 5014 ft 233 kts 39°
2026-04-21 14:23 51.32268 11.72945 4754 ft 232 kts 52°
2026-04-21 14:23 51.33214 11.75010 4487 ft 232 kts 54°
2026-04-21 14:23 51.34152 11.77123 4227 ft 233 kts 54°
2026-04-21 14:24 51.35096 11.79228 3967 ft 233 kts 53°
2026-04-21 14:24 51.36039 11.81308 3701 ft 232 kts 53°
2026-04-21 14:24 51.36996 11.83407 3467 ft 231 kts 53°
2026-04-21 14:24 51.37926 11.85445 3350 ft 220 kts 53°
2026-04-21 14:25 51.38813 11.87385 3190 ft 210 kts 53°
2026-04-21 14:25 51.39424 11.89394 3037 ft 202 kts 77°
2026-04-21 14:25 51.39676 11.91536 3001 ft 189 kts 77°
2026-04-21 14:25 51.39897 11.93610 3003 ft 189 kts 79°
2026-04-21 14:26 51.40038 11.95707 2997 ft 187 kts 83°
2026-04-21 14:26 51.40133 11.97706 2995 ft 173 kts 83°
2026-04-21 14:26 51.40216 11.99565 2993 ft 167 kts 83°
2026-04-21 14:26 51.40300 12.01443 2835 ft 170 kts 83°
2026-04-21 14:27 51.40384 12.03341 2614 ft 171 kts 82°
2026-04-21 14:27 51.40469 12.05217 2401 ft 165 kts 84°
2026-04-21 14:27 51.40549 12.07041 2149 ft 161 kts 83°
2026-04-21 14:27 51.40629 12.08827 1920 ft 159 kts 84°
2026-04-21 14:28 51.40704 12.10507 1726 ft 145 kts 83°
2026-04-21 14:28 51.40779 12.12127 1506 ft 147 kts 83°
2026-04-21 14:28 51.40852 12.13715 1312 ft 140 kts 83°
2026-04-21 14:28 51.40924 12.15280 1091 ft 143 kts 83°
2026-04-21 14:29 51.40996 12.16881 963 ft 146 kts 82°
2026-04-21 14:29 51.41076 12.18513 691 ft 149 kts 83°
2026-04-21 14:29 51.41146 12.20144 520 ft 146 kts 84°
2026-04-21 14:29 51.41179 12.21083 455 ft 141 kts 84°
2026-04-21 14:30 51.41238 12.22159 558 ft 150 kts 81°
2026-04-21 14:30 51.41385 12.24770 1029 ft 201 kts 82°
2026-04-21 14:30 51.41481 12.27085 1578 ft 215 kts 85°
2026-04-21 14:30 51.41493 12.29528 2067 ft 227 kts 95°
2026-04-21 14:31 51.40827 12.31822 2699 ft 239 kts 131°
2026-04-21 14:31 51.39878 12.32849 2935 ft 252 kts 156°
2026-04-21 14:31 51.38168 12.33141 2979 ft 251 kts 187°
2026-04-21 14:31 51.36542 12.32233 2984 ft 249 kts 211°
2026-04-21 14:32 51.35324 12.30308 3017 ft 249 kts 238°
2026-04-21 14:32 51.34751 12.27705 2996 ft 247 kts 265°
2026-04-21 14:32 51.34471 12.24995 2976 ft 247 kts 253°
2026-04-21 14:32 51.33844 12.22424 3221 ft 249 kts 248°
2026-04-21 14:33 51.33164 12.19911 3716 ft 249 kts 248°
2026-04-21 14:33 51.32482 12.17368 3970 ft 247 kts 248°
2026-04-21 14:33 51.31818 12.14837 3983 ft 247 kts 249°
2026-04-21 14:33 51.31153 12.12258 3983 ft 252 kts 249°
2026-04-21 14:34 51.30498 12.09689 3987 ft 251 kts 249°
2026-04-21 14:34 51.29840 12.07105 3985 ft 250 kts 249°
2026-04-21 14:34 51.29185 12.04535 3980 ft 249 kts 249°
2026-04-21 14:34 51.28617 12.01925 3983 ft 248 kts 259°
2026-04-21 14:35 51.28386 11.99204 4006 ft 247 kts 267°
2026-04-21 14:35 51.28267 11.96477 4000 ft 248 kts 272°
2026-04-21 14:35 51.28640 11.93830 3975 ft 243 kts 302°
2026-04-21 14:35 51.29745 11.91877 3981 ft 236 kts 330°
2026-04-21 14:36 51.31241 11.90906 3999 ft 231 kts 351°
2026-04-21 14:36 51.32812 11.90530 3979 ft 220 kts 356°
2026-04-21 14:36 51.34252 11.90261 3970 ft 201 kts 356°
2026-04-21 14:36 51.35589 11.90007 3981 ft 189 kts 356°
2026-04-21 14:37 51.36878 11.89755 3981 ft 185 kts 356°
2026-04-21 14:37 51.38133 11.89698 3954 ft 175 kts 17°
2026-04-21 14:37 51.39156 11.90628 3916 ft 171 kts 47°
2026-04-21 14:37 51.39724 11.92257 3707 ft 172 kts 76°
2026-04-21 14:38 51.39856 11.94167 3533 ft 172 kts 78°
2026-04-21 14:38 51.40043 11.96052 3334 ft 168 kts 81°
2026-04-21 14:38 51.40143 11.97909 3235 ft 172 kts 83°
2026-04-21 14:38 51.40228 11.99805 3036 ft 170 kts 83°
2026-04-21 14:39 51.40310 12.01684 2820 ft 167 kts 83°
2026-04-21 14:39 51.40395 12.03541 2585 ft 167 kts 82°
2026-04-21 14:39 51.40473 12.05379 2371 ft 163 kts 83°
2026-04-21 14:39 51.40555 12.07187 2136 ft 161 kts 83°
2026-04-21 14:40 51.40636 12.08948 1908 ft 161 kts 83°
2026-04-21 14:40 51.40715 12.10713 1689 ft 155 kts 83°
2026-04-21 14:40 51.40792 12.12416 1491 ft 153 kts 83°
2026-04-21 14:40 51.40864 12.14032 1339 ft 141 kts 83°
2026-04-21 14:41 51.40937 12.15650 1095 ft 145 kts 82°
2026-04-21 14:41 51.41012 12.17290 860 ft 150 kts 83°
2026-04-21 14:41 51.41084 12.18905 661 ft 141 kts 84°
2026-04-21 14:41 51.41156 12.20438 488 ft 136 kts 82°
2026-04-21 14:42 51.41231 12.21837 453 ft 104 kts 86°
2026-04-21 14:42 51.41263 12.22654 459 ft 43 kts 85°
2026-04-21 14:42 51.41282 12.23041 462 ft 32 kts 86°
2026-04-21 14:42 51.41244 12.23264 465 ft 19 kts 169°
2026-04-21 14:43 51.41116 12.23280 467 ft 18 kts 176°
2026-04-21 14:43 51.41030 12.23386 465 ft 17 kts 89°
2026-04-21 14:43 51.41047 12.23573 469 ft 17 kts 88°
2026-04-21 14:43 51.40964 12.23658 469 ft 17 kts 177°
2026-04-21 14:44 51.40891 12.23659 466 ft 9 kts 201°
2026-04-21 14:44 51.40879 12.23565 467 ft 8 kts 267°
2026-04-21 14:44 51.40878 12.23551 467 ft 0 kts 265°